DW9470 Weather Reports


time (UTC)temp
C
wind
direction
speed
KPH
gust
KPH
rain 1hr
cm
rain 24hr
cm
rain mn
cm
humidity
%
barometer
mb
20260504151011 22 307 20.9 3.2 0.00 0.00 0.00 37 1000.6
20260504140510 18 273 17.7 3.2 0.00 0.00 0.00 41 1001.2
20260504130510 15 256 11.3 1.6 0.00 0.00 0.00 51 1001.5
20260504110510 8 217 3.2 0.0 0.00 0.00 0.00 64 1001.9
20260504100510 7 224 1.6 0.0 0.00 0.00 0.00 64 1002.6
20260504081511 7 270 3.2 0.0 0.00 0.00 0.00 61 1003.6
20260504081011 7 249 0.0 0.0 0.00 0.00 0.00 60 1003.6
20260504080510 7 229 0.0 0.0 0.00 0.00 0.00 60 1003.6
20260504050511 11 224 1.6 0.0 0.00 0.00 0.00 51 1005.9
20260504050011 11 214 1.6 0.0 0.00 0.00 0.00 51 1006.0
20260504045511 11 181 1.6 0.0 0.00 0.00 0.00 51 1006.0
20260504045012 10 198 1.6 0.0 0.00 0.00 0.00 51 1006.1
20260504044511 10 151 0.0 0.0 0.00 0.00 0.00 50 1006.1
20260504044011 10 211 1.6 0.0 0.00 0.00 0.00 49 1006.2
20260504043511 11 204 1.6 0.0 0.00 0.00 0.00 50 1006.2
20260504043010 11 302 0.0 0.0 0.00 0.00 0.00 51 1006.3
20260504042510 11 298 0.0 0.0 0.00 0.00 0.00 50 1006.3
20260504042010 11 304 0.0 0.0 0.00 0.00 0.00 48 1006.4
20260504041510 12 301 0.0 0.0 0.00 0.00 0.00 47 1006.6
20260504041010 12 285 0.0 0.0 0.00 0.00 0.00 47 1006.7
20260504040510 12 279 1.6 0.0 0.00 0.00 0.00 46 1006.8
20260504035510 13 250 3.2 0.0 0.00 0.00 0.00 45 1006.9
20260504035010 13 271 3.2 0.0 0.00 0.00 0.00 44 1007.0
20260504034510 13 293 3.2 0.0 0.00 0.00 0.00 43 1007.0
20260504034010 14 281 3.2 0.0 0.00 0.00 0.00 42 1007.1
20260504033510 14 266 4.8 0.0 0.00 0.00 0.00 43 1007.2
20260504033010 14 276 6.4 0.0 0.00 0.00 0.00 42 1007.2
20260504032510 14 287 3.2 0.0 0.00 0.00 0.00 42 1007.3
20260504031510 14 224 3.2 0.0 0.00 0.00 0.00 40 1007.4
20260504031010 15 278 3.2 0.0 0.00 0.00 0.00 41 1007.4
20260504030510 15 260 1.6 0.0 0.00 0.00 0.00 40 1007.5
20260504030010 15 283 4.8 0.0 0.00 0.00 0.00 40 1007.5
20260504025510 15 298 1.6 0.0 0.00 0.00 0.00 40 1007.5
20260504025010 15 286 1.6 0.0 0.00 0.00 0.00 39 1007.5
20260504024510 15 274 6.4 0.0 0.00 0.00 0.00 38 1007.5
20260504024010 15 282 3.2 0.0 0.00 0.00 0.00 37 1007.5
20260504023510 15 294 4.8 0.0 0.00 0.00 0.00 37 1007.5
20260504023010 15 276 4.8 0.0 0.00 0.00 0.00 38 1007.6
20260504022510 15 288 3.2 0.0 0.00 0.00 0.00 37 1007.6
20260504022010 15 286 3.2 0.0 0.00 0.00 0.00 36 1007.5
20260504021510 16 285 1.6 0.0 0.00 0.00 0.00 35 1007.5
20260504020511 16 281 1.6 0.0 0.00 0.00 0.00 35 1007.5
20260504020010 16 278 1.6 0.0 0.00 0.00 0.00 35 1007.5
20260504015010 17 284 0.0 0.0 0.00 0.00 0.00 34 1007.4
20260504014512 17 288 0.0 0.0 0.00 0.00 0.00 34 1007.3
20260504014010 17 270 1.6 0.0 0.00 0.00 0.00 34 1007.3
20260504013510 17 238 1.6 0.0 0.00 0.00 0.00 34 1007.3
20260504013010 17 284 0.0 0.0 0.00 0.00 0.00 33 1007.3
20260504012510 17 283 3.2 0.0 0.00 0.00 0.00 32 1007.3
20260504011510 18 277 0.0 0.0 0.00 0.00 0.00 31 1007.3
20260504010510 20 281 1.6 0.0 0.00 0.00 0.00 30 1007.3
20260504010011 20 274 4.8 0.0 0.00 0.00 0.00 29 1007.3
20260504005510 21 287 1.6 0.0 0.00 0.00 0.00 28 1007.3
20260504005010 21 277 4.8 0.0 0.00 0.00 0.00 27 1007.3
20260504004010 21 291 3.2 1.6 0.00 0.00 0.00 26 1007.4
20260504003512 21 287 9.7 1.6 0.00 0.00 0.00 25 1007.4
20260504003011 22 294 6.4 1.6 0.00 0.00 0.00 25 1007.4
20260504002010 22 275 14.5 1.6 0.00 0.00 0.00 25 1007.4
20260504001510 22 288 6.4 1.6 0.00 0.00 0.00 24 1007.5
20260504001010 22 273 8.0 1.6 0.00 0.00 0.00 24 1007.5
20260504000511 22 304 0.0 1.6 0.00 0.00 0.00 25 1007.5
20260504000010 22 287 12.9 1.6 0.00 0.00 0.00 24 1007.5
20260503235510 22 253 1.6 1.6 0.00 0.00 0.00 24 1007.5
20260503235011 23 287 11.3 1.6 0.00 0.00 0.00 25 1007.5
20260503234510 22 307 9.7 3.2 0.00 0.00 0.00 25 1007.5
20260503234010 22 323 0.0 3.2 0.00 0.00 0.00 24 1007.5
20260503233510 22 62 1.6 1.6 0.00 0.00 0.00 23 1007.6
20260503232512 23 284 12.9 1.6 0.00 0.00 0.00 24 1007.7
20260503232011 23 292 8.0 3.2 0.00 0.00 0.00 26 1007.7
20260503231510 23 294 0.0 3.2 0.00 0.00 0.00 25 1007.7
20260503231011 23 34 3.2 1.6 0.00 0.00 0.00 25 1007.6
20260503230511 23 284 12.9 1.6 0.00 0.00 0.00 24 1007.7
20260503225511 23 353 0.0 1.6 0.00 0.00 0.00 24 1007.8
20260503223511 23 53 0.0 1.6 0.00 0.00 0.00 25 1008.0
20260503223011 23 253 0.0 1.6 0.00 0.00 0.00 25 1008.0
20260503222510 23 321 0.0 1.6 0.00 0.00 0.00 24 1008.0
20260503222011 23 176 0.0 1.6 0.00 0.00 0.00 23 1008.1
20260503221011 23 259 9.7 1.6 0.00 0.00 0.00 24 1008.1
20260503220511 23 305 4.8 1.6 0.00 0.00 0.00 24 1008.1
20260503220011 23 315 3.2 1.6 0.00 0.00 0.00 24 1008.1
20260503215011 23 12 1.6 1.6 0.00 0.00 0.00 24 1008.3
20260503214510 23 232 11.3 1.6 0.00 0.00 0.00 24 1008.4
20260503214011 23 309 0.0 1.6 0.00 0.00 0.00 24 1008.3
20260503213511 23 269 0.0 1.6 0.00 0.00 0.00 24 1008.5
20260503213011 23 33 4.8 1.6 0.00 0.00 0.00 25 1008.5
20260503212511 23 200 4.8 1.6 0.00 0.00 0.00 25 1008.5
20260503212011 23 239 9.7 1.6 0.00 0.00 0.00 24 1008.7
20260503211511 23 307 4.8 1.6 0.00 0.00 0.00 22 1008.7
20260503211011 23 325 3.2 0.0 0.00 0.00 0.00 24 1008.7
20260503210511 23 359 3.2 1.6 0.00 0.00 0.00 26 1008.7
20260503210011 23 328 8.0 1.6 0.00 0.00 0.00 25 1008.8
20260503205511 23 276 0.0 1.6 0.00 0.00 0.00 25 1008.9
20260503205011 23 43 11.3 1.6 0.00 0.00 0.00 26 1008.8
20260503204012 23 269 6.4 1.6 0.00 0.00 0.00 26 1009.0
20260503203511 23 305 6.4 1.6 0.00 0.00 0.00 25 1009.1
20260503203011 23 18 4.8 1.6 0.00 0.00 0.00 25 1009.0
20260503202511 23 307 4.8 1.6 0.00 0.00 0.00 26 1009.1
20260503200011 22 289 3.2 1.6 0.00 0.00 0.00 24 1009.4
20260503195511 22 37 3.2 1.6 0.00 0.00 0.00 26 1009.3
20260503194511 23 67 0.0 1.6 0.00 0.00 0.00 24 1009.6
20260503194011 23 267 9.7 1.6 0.00 0.00 0.00 25 1009.4
20260503193511 23 308 0.0 1.6 0.00 0.00 0.00 25 1009.6
20260503192511 23 60 0.0 1.6 0.00 0.00 0.00 26 1009.4
20260503192011 22 266 6.4 1.6 0.00 0.00 0.00 28 1009.5
20260503191511 23 294 6.4 1.6 0.00 0.00 0.00 27 1009.5
20260503191012 23 301 3.2 1.6 0.00 0.00 0.00 27 1009.5
20260503190511 22 311 3.2 1.6 0.00 0.00 0.00 29 1009.6
20260503190011 22 298 9.7 1.6 0.00 0.00 0.00 28 1009.7
20260503185511 22 67 6.4 1.6 0.00 0.00 0.00 29 1009.7
20260503185011 22 328 3.2 1.6 0.00 0.00 0.00 29 1009.7
20260503184511 21 273 3.2 1.6 0.00 0.00 0.00 29 1009.8
20260503184010 21 315 4.8 1.6 0.00 0.00 0.00 29 1009.7
20260503183510 22 308 9.7 1.6 0.00 0.00 0.00 27 1009.7
20260503183010 21 301 3.2 3.2 0.00 0.00 0.00 29 1009.6
20260503182010 21 318 8.0 1.6 0.00 0.00 0.00 27 1009.7
20260503181511 21 311 6.4 1.6 0.00 0.00 0.00 29 1009.8
20260503181010 21 89 6.4 1.6 0.00 0.00 0.00 28 1009.7
20260503180510 21 321 3.2 3.2 0.00 0.00 0.00 29 1009.8
20260503180010 21 297 4.8 3.2 0.00 0.00 0.00 29 1009.7
20260503175010 21 313 3.2 3.2 0.00 0.00 0.00 29 1009.9
20260503174510 21 311 6.4 1.6 0.00 0.00 0.00 32 1009.8
20260503173510 21 335 4.8 1.6 0.00 0.00 0.00 31 1010.0
20260503173010 21 98 3.2 3.2 0.00 0.00 0.00 32 1010.0
20260503171510 21 288 1.6 1.6 0.00 0.00 0.00 30 1010.1
20260503171010 21 96 8.0 1.6 0.00 0.00 0.00 29 1010.2
20260503170510 21 305 3.2 1.6 0.00 0.00 0.00 30 1010.1